﻿測定場所 (Monitoring sites),日付 (Measurement date),時間 (Measurement time),線量率 最大値 (max) μGy/h,線量率 最小値 (min) μGy/h,線量率 平均値 (average) μGy/h,
小平 (Kodaira),2013-01-20,23:01～24:00,0.0368,0.0331,0.0349,
小平 (Kodaira),2013-01-20,22:01～23:00,0.0367,0.0334,0.0349,
小平 (Kodaira),2013-01-20,21:01～22:00,0.0370,0.0331,0.0348,
小平 (Kodaira),2013-01-20,20:01～21:00,0.0360,0.0322,0.0344,
小平 (Kodaira),2013-01-20,19:01～20:00,0.0365,0.0330,0.0347,
小平 (Kodaira),2013-01-20,18:01～19:00,0.0368,0.0326,0.0347,
小平 (Kodaira),2013-01-20,17:01～18:00,0.0365,0.0319,0.0346,
小平 (Kodaira),2013-01-20,16:01～17:00,0.0371,0.0331,0.0349,
小平 (Kodaira),2013-01-20,15:01～16:00,0.0369,0.0331,0.0349,
小平 (Kodaira),2013-01-20,14:01～15:00,0.0377,0.0334,0.0352,
小平 (Kodaira),2013-01-20,13:01～14:00,0.0371,0.0328,0.0353,
小平 (Kodaira),2013-01-20,12:01～13:00,0.0379,0.0338,0.0355,
小平 (Kodaira),2013-01-20,11:01～12:00,0.0376,0.0334,0.0356,
小平 (Kodaira),2013-01-20,10:01～11:00,0.0372,0.0335,0.0355,
小平 (Kodaira),2013-01-20,09:01～10:00,0.0378,0.0328,0.0353,
小平 (Kodaira),2013-01-20,08:01～09:00,0.0371,0.0329,0.0355,
小平 (Kodaira),2013-01-20,07:01～08:00,0.0386,0.0340,0.0361,
小平 (Kodaira),2013-01-20,06:01～07:00,0.0399,0.0344,0.0365,
小平 (Kodaira),2013-01-20,05:01～06:00,0.0389,0.0354,0.0365,
小平 (Kodaira),2013-01-20,04:01～05:00,0.0397,0.0337,0.0366,
小平 (Kodaira),2013-01-20,03:01～04:00,0.0382,0.0343,0.0362,
小平 (Kodaira),2013-01-20,02:01～03:00,0.0387,0.0341,0.0364,
小平 (Kodaira),2013-01-20,01:01～02:00,0.0395,0.0346,0.0367,
小平 (Kodaira),2013-01-20,00:01～01:00,0.0378,0.0334,0.0359,
小平 (Kodaira),2013-01-19,23:01～24:00,0.0373,0.0337,0.0355,
小平 (Kodaira),2013-01-19,22:01～23:00,0.0373,0.0326,0.0350,
小平 (Kodaira),2013-01-19,21:01～22:00,0.0368,0.0330,0.0346,
小平 (Kodaira),2013-01-19,20:01～21:00,0.0376,0.0327,0.0349,
小平 (Kodaira),2013-01-19,19:01～20:00,0.0364,0.0324,0.0343,
小平 (Kodaira),2013-01-19,18:01～19:00,0.0367,0.0327,0.0344,
小平 (Kodaira),2013-01-19,17:01～18:00,0.0364,0.0319,0.0344,
小平 (Kodaira),2013-01-19,16:01～17:00,0.0368,0.0321,0.0345,
小平 (Kodaira),2013-01-19,15:01～16:00,0.0364,0.0325,0.0345,
小平 (Kodaira),2013-01-19,14:01～15:00,0.0369,0.0330,0.0347,
小平 (Kodaira),2013-01-19,13:01～14:00,0.0365,0.0322,0.0344,
小平 (Kodaira),2013-01-19,12:01～13:00,0.0374,0.0330,0.0347,
小平 (Kodaira),2013-01-19,11:01～12:00,0.0367,0.0327,0.0347,
小平 (Kodaira),2013-01-19,10:01～11:00,0.0364,0.0333,0.0349,
小平 (Kodaira),2013-01-19,09:01～10:00,0.0375,0.0340,0.0356,
小平 (Kodaira),2013-01-19,08:01～09:00,0.0371,0.0338,0.0355,
小平 (Kodaira),2013-01-19,07:01～08:00,0.0373,0.0336,0.0356,
小平 (Kodaira),2013-01-19,06:01～07:00,0.0368,0.0339,0.0354,
小平 (Kodaira),2013-01-19,05:01～06:00,0.0380,0.0338,0.0359,
小平 (Kodaira),2013-01-19,04:01～05:00,0.0379,0.0343,0.0357,
小平 (Kodaira),2013-01-19,03:01～04:00,0.0374,0.0337,0.0355,
小平 (Kodaira),2013-01-19,02:01～03:00,0.0387,0.0341,0.0360,
小平 (Kodaira),2013-01-19,01:01～02:00,0.0398,0.0341,0.0357,
小平 (Kodaira),2013-01-19,00:01～01:00,0.0372,0.0329,0.0354,
小平 (Kodaira),2013-01-18,23:01～24:00,0.0381,0.0331,0.0355,
小平 (Kodaira),2013-01-18,22:01～23:00,0.0385,0.0332,0.0351,
小平 (Kodaira),2013-01-18,21:01～22:00,0.0368,0.0330,0.0346,
小平 (Kodaira),2013-01-18,20:01～21:00,0.0371,0.0328,0.0346,
小平 (Kodaira),2013-01-18,19:01～20:00,0.0360,0.0325,0.0343,
小平 (Kodaira),2013-01-18,18:01～19:00,0.0358,0.0317,0.0342,
小平 (Kodaira),2013-01-18,17:01～18:00,0.0360,0.0321,0.0342,
小平 (Kodaira),2013-01-18,16:01～17:00,0.0360,0.0319,0.0344,
小平 (Kodaira),2013-01-18,15:01～16:00,0.0361,0.0323,0.0342,
小平 (Kodaira),2013-01-18,14:01～15:00,0.0355,0.0305,0.0341,
小平 (Kodaira),2013-01-18,13:01～14:00,0.0363,0.0321,0.0342,
小平 (Kodaira),2013-01-18,12:01～13:00,0.0368,0.0321,0.0343,
小平 (Kodaira),2013-01-18,11:01～12:00,0.0361,0.0320,0.0340,
小平 (Kodaira),2013-01-18,10:01～11:00,0.0357,0.0318,0.0340,
小平 (Kodaira),2013-01-18,09:01～10:00,0.0357,0.0324,0.0339,
小平 (Kodaira),2013-01-18,08:01～09:00,0.0359,0.0318,0.0339,
小平 (Kodaira),2013-01-18,07:01～08:00,0.0357,0.0317,0.0338,
小平 (Kodaira),2013-01-18,06:01～07:00,0.0353,0.0318,0.0339,
小平 (Kodaira),2013-01-18,05:01～06:00,0.0359,0.0318,0.0341,
小平 (Kodaira),2013-01-18,04:01～05:00,0.0363,0.0316,0.0340,
小平 (Kodaira),2013-01-18,03:01～04:00,0.0368,0.0326,0.0341,
小平 (Kodaira),2013-01-18,02:01～03:00,0.0363,0.0317,0.0340,
小平 (Kodaira),2013-01-18,01:01～02:00,0.0363,0.0319,0.0341,
小平 (Kodaira),2013-01-18,00:01～01:00,0.0356,0.0317,0.0340,
小平 (Kodaira),2013-01-17,23:01～24:00,0.0361,0.0319,0.0340,
小平 (Kodaira),2013-01-17,22:01～23:00,0.0362,0.0322,0.0340,
小平 (Kodaira),2013-01-17,21:01～22:00,0.0363,0.0319,0.0339,
小平 (Kodaira),2013-01-17,20:01～21:00,0.0365,0.0315,0.0338,
小平 (Kodaira),2013-01-17,19:01～20:00,0.0357,0.0319,0.0338,
小平 (Kodaira),2013-01-17,18:01～19:00,0.0357,0.0317,0.0338,
小平 (Kodaira),2013-01-17,17:01～18:00,0.0357,0.0315,0.0339,
小平 (Kodaira),2013-01-17,16:01～17:00,0.0358,0.0323,0.0341,
小平 (Kodaira),2013-01-17,15:01～16:00,0.0365,0.0325,0.0341,
小平 (Kodaira),2013-01-17,14:01～15:00,0.0352,0.0316,0.0338,
小平 (Kodaira),2013-01-17,13:01～14:00,0.0371,0.0316,0.0340,
小平 (Kodaira),2013-01-17,12:01～13:00,0.0350,0.0315,0.0335,
小平 (Kodaira),2013-01-17,11:01～12:00,0.0363,0.0318,0.0340,
小平 (Kodaira),2013-01-17,10:01～11:00,0.0369,0.0332,0.0348,
小平 (Kodaira),2013-01-17,09:01～10:00,0.0373,0.0328,0.0350,
小平 (Kodaira),2013-01-17,08:01～09:00,0.0388,0.0337,0.0360,
小平 (Kodaira),2013-01-17,07:01～08:00,0.0378,0.0337,0.0356,
小平 (Kodaira),2013-01-17,06:01～07:00,0.0387,0.0345,0.0359,
小平 (Kodaira),2013-01-17,05:01～06:00,0.0384,0.0337,0.0357,
小平 (Kodaira),2013-01-17,04:01～05:00,0.0383,0.0339,0.0357,
小平 (Kodaira),2013-01-17,03:01～04:00,0.0388,0.0336,0.0356,
小平 (Kodaira),2013-01-17,02:01～03:00,0.0373,0.0330,0.0355,
小平 (Kodaira),2013-01-17,01:01～02:00,0.0373,0.0322,0.0351,
小平 (Kodaira),2013-01-17,00:01～01:00,0.0365,0.0320,0.0343,
小平 (Kodaira),2013-01-16,23:01～24:00,0.0372,0.0326,0.0347,
小平 (Kodaira),2013-01-16,22:01～23:00,0.0368,0.0316,0.0342,
小平 (Kodaira),2013-01-16,21:01～22:00,0.0363,0.0322,0.0343,
小平 (Kodaira),2013-01-16,20:01～21:00,0.0363,0.0311,0.0336,
小平 (Kodaira),2013-01-16,19:01～20:00,0.0358,0.0318,0.0336,
小平 (Kodaira),2013-01-16,18:01～19:00,0.0346,0.0303,0.0330,
小平 (Kodaira),2013-01-16,17:01～18:00,0.0356,0.0311,0.0332,
小平 (Kodaira),2013-01-16,16:01～17:00,0.0346,0.0309,0.0327,
小平 (Kodaira),2013-01-16,15:01～16:00,0.0356,0.0313,0.0330,
小平 (Kodaira),2013-01-16,14:01～15:00,0.0352,0.0309,0.0331,
小平 (Kodaira),2013-01-16,13:01～14:00,0.0344,0.0310,0.0328,
小平 (Kodaira),2013-01-16,12:01～13:00,0.0352,0.0305,0.0327,
小平 (Kodaira),2013-01-16,11:01～12:00,0.0362,0.0311,0.0329,
小平 (Kodaira),2013-01-16,10:01～11:00,0.0348,0.0308,0.0329,
小平 (Kodaira),2013-01-16,09:01～10:00,0.0349,0.0308,0.0328,
小平 (Kodaira),2013-01-16,08:01～09:00,0.0345,0.0302,0.0324,
小平 (Kodaira),2013-01-16,07:01～08:00,0.0342,0.0308,0.0326,
小平 (Kodaira),2013-01-16,06:01～07:00,0.0340,0.0301,0.0324,
小平 (Kodaira),2013-01-16,05:01～06:00,0.0344,0.0314,0.0326,
小平 (Kodaira),2013-01-16,04:01～05:00,0.0342,0.0306,0.0322,
小平 (Kodaira),2013-01-16,03:01～04:00,0.0354,0.0307,0.0327,
小平 (Kodaira),2013-01-16,02:01～03:00,0.0345,0.0305,0.0326,
小平 (Kodaira),2013-01-16,01:01～02:00,0.0355,0.0308,0.0325,
小平 (Kodaira),2013-01-16,00:01～01:00,0.0346,0.0312,0.0327,
小平 (Kodaira),2013-01-15,23:01～24:00,0.0345,0.0307,0.0324,
小平 (Kodaira),2013-01-15,22:01～23:00,0.0342,0.0299,0.0322,
小平 (Kodaira),2013-01-15,21:01～22:00,0.0354,0.0302,0.0324,
小平 (Kodaira),2013-01-15,20:01～21:00,0.0354,0.0304,0.0324,
小平 (Kodaira),2013-01-15,19:01～20:00,0.0349,0.0303,0.0321,
小平 (Kodaira),2013-01-15,18:01～19:00,0.0343,0.0302,0.0319,
小平 (Kodaira),2013-01-15,17:01～18:00,0.0338,0.0302,0.0318,
小平 (Kodaira),2013-01-15,16:01～17:00,0.0338,0.0295,0.0315,
小平 (Kodaira),2013-01-15,15:01～16:00,0.0340,0.0299,0.0317,
小平 (Kodaira),2013-01-15,14:01～15:00,0.0337,0.0294,0.0315,
小平 (Kodaira),2013-01-15,13:01～14:00,0.0342,0.0293,0.0314,
小平 (Kodaira),2013-01-15,12:01～13:00,0.0332,0.0285,0.0309,
小平 (Kodaira),2013-01-15,11:01～12:00,0.0317,0.0282,0.0300,
小平 (Kodaira),2013-01-15,10:01～11:00,0.0321,0.0283,0.0302,
小平 (Kodaira),2013-01-15,09:01～10:00,0.0319,0.0275,0.0296,
小平 (Kodaira),2013-01-15,08:01～09:00,0.0309,0.0271,0.0292,
小平 (Kodaira),2013-01-15,07:01～08:00,0.0315,0.0277,0.0294,
小平 (Kodaira),2013-01-15,06:01～07:00,0.0313,0.0273,0.0290,
小平 (Kodaira),2013-01-15,05:01～06:00,0.0314,0.0275,0.0292,
小平 (Kodaira),2013-01-15,04:01～05:00,0.0309,0.0276,0.0293,
小平 (Kodaira),2013-01-15,03:01～04:00,0.0316,0.0275,0.0293,
小平 (Kodaira),2013-01-15,02:01～03:00,0.0312,0.0271,0.0290,
小平 (Kodaira),2013-01-15,01:01～02:00,0.0311,0.0271,0.0289,
小平 (Kodaira),2013-01-15,00:01～01:00,0.0313,0.0270,0.0287,
小平 (Kodaira),2013-01-14,23:01～24:00,0.0304,0.0271,0.0285,
小平 (Kodaira),2013-01-14,22:01～23:00,0.0303,0.0267,0.0286,
小平 (Kodaira),2013-01-14,21:01～22:00,0.0305,0.0273,0.0287,
小平 (Kodaira),2013-01-14,20:01～21:00,0.0315,0.0275,0.0296,
小平 (Kodaira),2013-01-14,19:01～20:00,0.0369,0.0302,0.0335,
小平 (Kodaira),2013-01-14,18:01～19:00,0.0419,0.0349,0.0379,
小平 (Kodaira),2013-01-14,17:01～18:00,0.0429,0.0373,0.0403,
小平 (Kodaira),2013-01-14,16:01～17:00,0.0482,0.0374,0.0421,
小平 (Kodaira),2013-01-14,15:01～16:00,0.0553,0.0430,0.0496,
小平 (Kodaira),2013-01-14,14:01～15:00,0.0580,0.0507,0.0538,
小平 (Kodaira),2013-01-14,13:01～14:00,0.0570,0.0485,0.0528,
小平 (Kodaira),2013-01-14,12:01～13:00,0.0568,0.0483,0.0534,
小平 (Kodaira),2013-01-14,11:01～12:00,0.0570,0.0502,0.0533,
小平 (Kodaira),2013-01-14,10:01～11:00,0.0592,0.0469,0.0520,
小平 (Kodaira),2013-01-14,09:01～10:00,0.0521,0.0451,0.0491,
小平 (Kodaira),2013-01-14,08:01～09:00,0.0526,0.0444,0.0478,
小平 (Kodaira),2013-01-14,07:01～08:00,0.0506,0.0421,0.0460,
小平 (Kodaira),2013-01-14,06:01～07:00,0.0516,0.0434,0.0474,
小平 (Kodaira),2013-01-14,05:01～06:00,0.0560,0.0477,0.0516,
小平 (Kodaira),2013-01-14,04:01～05:00,0.0558,0.0435,0.0502,
小平 (Kodaira),2013-01-14,03:01～04:00,0.0473,0.0364,0.0419,
小平 (Kodaira),2013-01-14,02:01～03:00,0.0393,0.0344,0.0367,
小平 (Kodaira),2013-01-14,01:01～02:00,0.0400,0.0348,0.0368,
小平 (Kodaira),2013-01-14,00:01～01:00,0.0398,0.0347,0.0367,
